Regional Weather Roundup
Issued by NWS Boston, MA

Home | Current Version | Previous Version | Text Only | Print | Product List | Glossary On
Versions: 1 2 3 4 5 6 7 8 9 10 11 12 13 14 15 16 17 18 19 20 21 22 23 24 25 26 27 28 29 30 31 32 33 34 35 36 37 38 39 40 41 42 43 44 45 46 47 48 49 50
220
ASUS41 KBOX 022310
RWRBOX

REGIONAL WEATHER ROUNDUP
NATIONAL WEATHER SERVICE TAUNTON MA
700 PM EDT MON MAY 02 2016

NOTE:  "FAIR" INDICATES FEW OR NO CLOUDS BELOW 12,000 FEET WITH NO
SIGNIFICANT WEATHER AND/OR OBSTRUCTIONS TO VISIBILITY.  THE FOLLOWING
OBSERVATION LOCATIONS DO NOT REPORT PRESENT WEATHER...PROVINCETOWN...
SMITHFIELD...BLOCK ISLAND...KEENE...AND OXFORD.

MAZALL-030000-
EASTERN MASSACHUSETTS

CITY           SKY/WX    TMP DP  RH WIND       PRES   REMARKS
BOSTON         LGT RAIN  51  49  92 N8        29.90R FOG
BEVERLY        CLOUDY    47  44  90 NE7       29.90R FOG
LAWRENCE       CLOUDY    48  45  89 N6        29.92R FOG
BEDFORD        CLOUDY    50  48  93 NW8       29.90R FOG
BLUE HILL        N/A     49  49 100 NW8       29.88R
NORWOOD        CLOUDY    52  49  89 NW6       29.89R FOG
MARSHFIELD     CLOUDY    50  50 100 NW6       29.89R FOG
PLYMOUTH       CLOUDY    54  52  93 W8        29.88R FOG
TAUNTON        CLOUDY    56  51  84 VRB3      29.88R
NEW BEDFORD    CLOUDY    55  52  89 W7        29.88R
$$

MAZALL-030000-
CAPE COD AND THE ISLANDS

CITY           SKY/WX    TMP DP  RH WIND       PRES   REMARKS
FALMOUTH       NOT AVBL
HYANNIS        MOCLDY    54  51  90 W13       29.86R
CHATHAM        CLOUDY    50  50 100 VRB5      29.88R FOG
PROVINCETOWN   CLOUDY    49  48  97 NW9       29.88R FOG
NANTUCKET      CLOUDY    52  48  86 W13       29.89R
MARTHAS VNYRD  PTCLDY    53  50  89 SW8       29.89R
$$

MAZALL-030000-
CENTRAL AND WESTERN MASSACHUSETTS

CITY           SKY/WX    TMP DP  RH WIND       PRES   REMARKS
WORCESTER      CLOUDY    48  47  96 W9        29.89R FOG
FITCHBURG      CLOUDY    50  47  89 N6        29.91R
ORANGE         CLOUDY    49  47  93 NW3       29.92R FOG
SPRINGFIELD    CLOUDY    50  48  93 SW1       29.90R
WESTFIELD      CLOUDY    50  47  89 CALM      29.90S
NORTH ADAMS    CLOUDY    50  47  89 W7        29.92R
PITTSFIELD     CLOUDY    49  46  90 W12       29.90R
$$

RIZALL-030000-
RHODE ISLAND

CITY           SKY/WX    TMP DP  RH WIND       PRES   REMARKS
PROVIDENCE     CLOUDY    56  50  80 W8        29.89R
NEWPORT        CLOUDY    53  49  86 SW6       29.89R
BLOCK ISLAND   CLOUDY    52  48  87 SW9       29.91R
SMITHFIELD       N/A     52  48  87 NW7       29.88S
WESTERLY       CLOUDY    54  48  80 SW5       29.91R
$$

CTZALL-030000-
CONNECTICUT

CITY           SKY/WX    TMP DP  RH WIND       PRES   REMARKS
BRADLEY INTL   MOCLDY    53  49  86 CALM      29.89S
HARTFORD       CLOUDY    57  51  80 CALM      29.90F
BRIDGEPORT     CLOUDY    55  49  80 SW5       29.89F
DANBURY        CLOUDY    57  50  77 NW5       29.89F
GROTON         CLOUDY    52  52 100 SW7       29.90R
NEW HAVEN      CLOUDY    53  49  86 S7        29.90S
CHESTER        NOT AVBL
MERIDEN        PTCLDY    57  50  77 W7        29.90F
WILLIMANTIC    CLOUDY    55  49  80 SW6       29.90R
OXFORD         MOCLDY    54  48  82 N8        29.90F
$$

MEZ002-015-021-024-NHZ003-005-008-011-012-014-VTZ005-008-030000-
NORTHERN NEW ENGLAND

CITY           SKY/WX    TMP DP  RH WIND       PRES   REMARKS
PORTLAND ME    LGT RAIN  45  43  93 N12       29.90F FOG
BANGOR ME      RAIN      46  42  86 N17       29.98R FOG
CONCORD NH     CLOUDY    48  44  86 N3        29.92R
MANCHESTER NH  CLOUDY    48  45  89 N7        29.90R FOG
NASHUA NH      CLOUDY    48  46  93 VRB5      29.92R
PORTSMOUTH NH  CLOUDY    46  43  90 N9        29.90R
JAFFREY NH     CLOUDY    46  44  93 N5        29.91S FOG
KEENE NH       CLOUDY    48  45  87 NW3       29.93R
BURLINGTON VT  CLOUDY    47  43  86 N5        29.95R
MT. WASHINGTON FRZ DRZL  30  30 100 W15         N/A  VSB 1/16WCI  19
$$

NYZ052-076-030000-
EASTERN NEW YORK

CITY           SKY/WX    TMP DP  RH WIND       PRES   REMARKS
ALBANY         CLOUDY    53  49  86 CALM      29.93R
NEW YORK CITY  MOCLDY    61  51  70 SW3       29.90S
$$

ANZALL-030000-
MARINE OBSERVATIONS

STATION/POSITION TIME  TEMP    WIND        PRES    VSBY  WAVE
                       AIR SEA DIR/SP/G                  HT/PER
                 (UTC) (F)     (DEG/KT/KT) (MB)    (MI)  (FT/S)
BOSTON BUOY      2250   47 47  320/  8/ 10 1011.1R         4/ 8
BUZZARDS BAY     2300   48     230/ 15/ 16 1012.5R
NANTUCKET SOUND  2250   50 50  240/ 14/ 16 1011.3R         1/ 6
MASS BAY-STELLWA 2204   46 46                N/A    1 7/8  5/ 6
ISLE OF SHOALS   2300   44      10/ 18/ 20 1012.1R
S OF BLOCK IS    NOT AVBL
$$

......................KEY.........................
  SKY/WX - SKY CONDITION/PRESENT WEATHER
  TMP    - TEMPERATURE IN FAHRENHEIT
  DWPT   - DEWPOINT IN FAHRENHEIT
  RH     - RELATIVE HUMIDITY IN PERCENT
  WIND   - DIRECTION AND SPEED IN MPH
  PRES   - MEAN SEA LEVEL PRESSURE IN INCHES OF HG
  WCI    - WIND CHILL INDEX
  VSB    - VISIBILITY IN MILES
  HX     - HEAT INDEX
  TC     - TEMPERATURE IN CELSIUS
  VRB    - VARIABLE WIND DIRECTION
  N/A    - NOT AVAILABLE




USA.gov is the U.S. government's official web portal to all federal, state and local government web resources and services.